LGSA Airport Information

Runway Information
Runway 11 Length 10982 ft width 148 ft
Elevation 428 ft Threshold 0 ft Heading 111
Runway 29 Length 10982 ft Width 148 ft
Elevation 490 ft Threshold 0 ft Heading 291
Airport Frequencies
Type A/G Name CHANIA RDO Frequency 563.7 MHZ
Type APP Name APP Frequency 118.125 MHZ
Type GND Name GND Frequency 121.7 MHZ
Type MISC Name RANGER BAS Frequency 25.24 MHZ
Type OPS Name BASE OPS Frequency 35.94 MHZ
Type PMSV Name PMSV METRO Frequency 35.94 MHZ
Type POST Name BULL PEN Frequency 27.895 MHZ
Type TWR Name TWR Frequency 121.1 MHZ
Airport Navaids
Type TACAN Name Souda Frequency 111200 KHZ
Type VOR-DME Name Chania Frequency 108600 KHZ
Type NDB Name Chania Frequency 409 KHZ
Airport Weather Information & NOTAM
ADDS - METARS form results

(0809 UTC 22 May 2018)
 
METAR text: LGSA 220750Z 00000KT 9999 FEW025 23/19 Q1015
Conditions at: LGSA (SOUDA/KHANIA (AF, GR) observed 0750 UTC 22 May 2018
Temperature: 23.0°C (73°F)
Dewpoint: 19.0°C (66°F) [RH = 78%]
Pressure (altimeter): 29.97 inches Hg (1015.0 mb)
Winds: calm
Visibility: 6 or more miles (10+ km)
Ceiling: at least 12,000 feet AGL
Clouds: few clouds at 2500 feet AGL
Weather: no significant weather observed at this time

METAR text: LGSA 220720Z 00000KT 9999 FEW025 22/19 Q1015
Conditions at: LGSA (SOUDA/KHANIA (AF, GR) observed 0720 UTC 22 May 2018
Temperature: 22.0°C (72°F)
Dewpoint: 19.0°C (66°F) [RH = 83%]
Pressure (altimeter): 29.97 inches Hg (1015.0 mb)
Winds: calm
Visibility: 6 or more miles (10+ km)
Ceiling: at least 12,000 feet AGL
Clouds: few clouds at 2500 feet AGL
Weather: no significant weather observed at this time